When you browse on this site, cookies collect data to enhance your experience and personalize the content and advertising you see.
Visit our Privacy Policy to learn more. By continuing to use the site, you agree to this use of cookies and data.
  • In Hungary
  • List of Countries
  • For 7 days
  • Water Temperature
  • Weather Map
  • News
  • Weather Widgets
  • user-avatar
    Login

    Hourly Weather Pokoynoe

    Today, 13 October, Sunday

    Time Temperature Precipitation Wind Pressure Humidity
    00:00 +13°C° 0 mm 2 mps 762 mmHg 66%
    01:00 +12°C° 0 mm 2 mps 762 mmHg 67%
    02:00 +12°C° 0 mm 2 mps 762 mmHg 68%
    03:00 +10°C° 0 mm 2 mps 761 mmHg 72%
    04:00 +10°C° 0 mm 2 mps 762 mmHg 73%
    05:00 +11°C° 0 mm 1 mps 762 mmHg 74%
    06:00 +11°C° 0 mm 1 mps 762 mmHg 75%
    07:00 +12°C° 0 mm 2 mps 762 mmHg 68%
    08:00 +14°C° 0 mm 2 mps 762 mmHg 62%
    09:00 +16°C° 0 mm 3 mps 762 mmHg 55%
    10:00 +17°C° 0 mm 3 mps 762 mmHg 49%
    11:00 +18°C° 0 mm 3 mps 762 mmHg 43%
    12:00 +20°C° 0 mm 3 mps 762 mmHg 38%
    13:00 +21°C° 0 mm 3 mps 761 mmHg 35%
    14:00 +21°C° 0 mm 3 mps 761 mmHg 33%
    15:00 +22°C° 0 mm 3 mps 761 mmHg 30%
    16:00 +20°C° 0 mm 2 mps 761 mmHg 33%
    17:00 +19°C° 0 mm 2 mps 761 mmHg 37%
    18:00 +18°C° 0 mm 2 mps 761 mmHg 40%
    19:00 +17°C° 0 mm 2 mps 760 mmHg 42%
    20:00 +17°C° 0 mm 2 mps 760 mmHg 44%
    21:00 +16°C° 0 mm 1 mps 760 mmHg 45%
    22:00 +16°C° 0 mm 1 mps 760 mmHg 46%
    23:00 +15°C° 0 mm 1 mps 760 mmHg 46%

    Tomorrow, 14 October, Monday

    Time Temperature Precipitation Wind Pressure Humidity
    00:00 +15°C° 0 mm 1 mps 760 mmHg 47%
    01:00 +14°C° 0 mm 1 mps 760 mmHg 48%
    02:00 +14°C° 0 mm 1 mps 760 mmHg 50%
    03:00 +14°C° 0 mm 1 mps 760 mmHg 51%
    04:00 +13°C° 0 mm 1 mps 760 mmHg 52%
    05:00 +13°C° 0 mm 1 mps 760 mmHg 53%
    06:00 +13°C° 0 mm 1 mps 760 mmHg 55%
    07:00 +15°C° 0 mm 1 mps 761 mmHg 50%
    08:00 +16°C° 0 mm 1 mps 761 mmHg 46%
    09:00 +19°C° 0 mm 1 mps 761 mmHg 41%
    10:00 +21°C° 0 mm 1 mps 761 mmHg 37%
    11:00 +22°C° 0 mm 1 mps 761 mmHg 33%
    12:00 +22°C° 0 mm 0 mps 760 mmHg 29%
    13:00 +22°C° 0 mm 0 mps 760 mmHg 27%
    14:00 +23°C° 0 mm 0 mps 760 mmHg 26%
    15:00 +23°C° 0 mm 0 mps 760 mmHg 25%
    16:00 +24°C° 0 mm 1 mps 760 mmHg 28%
    17:00 +22°C° 0 mm 1 mps 760 mmHg 32%
    18:00 +21°C° 0 mm 1 mps 760 mmHg 35%
    19:00 +19°C° 0 mm 2 mps 760 mmHg 37%
    20:00 +19°C° 0 mm 2 mps 760 mmHg 38%
    21:00 +18°C° 0 mm 2 mps 760 mmHg 40%
    22:00 +17°C° 0 mm 2 mps 759 mmHg 41%
    23:00 +17°C° 0 mm 2 mps 759 mmHg 42%

    Day after tomorrow, 15 October, Tuesday

    Time Temperature Precipitation Wind Pressure Humidity
    00:00 +16°C° 0 mm 2 mps 759 mmHg 43%
    01:00 +16°C° 0 mm 2 mps 758 mmHg 44%
    02:00 +16°C° 0 mm 2 mps 758 mmHg 46%
    03:00 +15°C° 0 mm 2 mps 758 mmHg 47%
    04:00 +15°C° 0 mm 2 mps 758 mmHg 49%
    05:00 +14°C° 0 mm 2 mps 758 mmHg 51%
    06:00 +14°C° 0 mm 2 mps 757 mmHg 53%
    07:00 +16°C° 0 mm 2 mps 757 mmHg 49%
    08:00 +17°C° 0 mm 2 mps 758 mmHg 46%
    09:00 +19°C° 0 mm 2 mps 758 mmHg 43%
    10:00 +20°C° 0 mm 2 mps 758 mmHg 38%
    11:00 +22°C° 0 mm 3 mps 757 mmHg 33%
    12:00 +24°C° 0 mm 3 mps 757 mmHg 28%
    13:00 +25°C° 0 mm 3 mps 757 mmHg 28%
    14:00 +25°C° 0 mm 3 mps 756 mmHg 28%
    15:00 +26°C° 0 mm 3 mps 756 mmHg 28%
    16:00 +24°C° 0 mm 2 mps 756 mmHg 34%
    17:00 +21°C° 0 mm 2 mps 756 mmHg 39%
    18:00 +20°C° 0 mm 1 mps 756 mmHg 45%
    19:00 +20°C° 0 mm 1 mps 756 mmHg 46%
    20:00 +19°C° 0 mm 1 mps 756 mmHg 48%
    21:00 +19°C° 0 mm 1 mps 757 mmHg 49%
    22:00 +18°C° 0 mm 1 mps 756 mmHg 52%
    23:00 +18°C° 0 mm 1 mps 756 mmHg 55%

    16 October, Wednesday

    Time Temperature Precipitation Wind Pressure Humidity
    00:00 +16°C° 0 mm 1 mps 756 mmHg 59%
    01:00 +16°C° 0 mm 1 mps 756 mmHg 61%
    02:00 +15°C° 0 mm 1 mps 756 mmHg 63%
    03:00 +14°C° 0 mm 0 mps 756 mmHg 66%
    04:00 +13°C° 0 mm 0 mps 756 mmHg 67%
    05:00 +13°C° 0 mm 0 mps 756 mmHg 68%
    06:00 +13°C° 0 mm 0 mps 756 mmHg 69%
    07:00 +16°C° 0 mm 1 mps 756 mmHg 61%
    08:00 +19°C° 0 mm 1 mps 757 mmHg 53%
    09:00 +20°C° 0 mm 2 mps 757 mmHg 45%
    10:00 +21°C° 0 mm 2 mps 757 mmHg 40%
    11:00 +24°C° 0 mm 3 mps 757 mmHg 35%
    12:00 +25°C° 0 mm 3 mps 757 mmHg 30%
    13:00 +25°C° 0 mm 4 mps 756 mmHg 30%
    14:00 +26°C° 0 mm 4 mps 756 mmHg 29%
    15:00 +26°C° 0 mm 4 mps 756 mmHg 29%
    16:00 +23°C° 0 mm 4 mps 756 mmHg 34%
    17:00 +22°C° 0 mm 3 mps 756 mmHg 39%
    18:00 +20°C° 0 mm 3 mps 757 mmHg 44%
    19:00 +19°C° 0 mm 3 mps 757 mmHg 47%
    20:00 +18°C° 0 mm 3 mps 757 mmHg 50%
    21:00 +18°C° 0 mm 3 mps 757 mmHg 54%
    22:00 +17°C° 0 mm 3 mps 757 mmHg 58%
    23:00 +16°C° 0 mm 3 mps 757 mmHg 63%

    17 October, Thursday

    Time Temperature Precipitation Wind Pressure Humidity
    00:00 +16°C° 0 mm 3 mps 757 mmHg 68%
    01:00 +14°C° 0 mm 3 mps 757 mmHg 74%
    02:00 +14°C° 0 mm 3 mps 757 mmHg 79%
    03:00 +13°C° 0 mm 3 mps 757 mmHg 84%
    04:00 +13°C° 0 mm 3 mps 757 mmHg 88%
    05:00 +12°C° 0 mm 3 mps 757 mmHg 91%
    06:00 +12°C° 0 mm 3 mps 757 mmHg 94%
    07:00 +13°C° 0 mm 4 mps 757 mmHg 87%
    08:00 +14°C° 0 mm 4 mps 757 mmHg 80%
    09:00 +16°C° 0 mm 5 mps 758 mmHg 74%
    10:00 +17°C° 0 mm 5 mps 757 mmHg 65%
    11:00 +20°C° 0 mm 5 mps 757 mmHg 57%
    12:00 +21°C° 0 mm 6 mps 757 mmHg 48%
    13:00 +22°C° 0 mm 6 mps 757 mmHg 46%
    14:00 +22°C° 0 mm 6 mps 757 mmHg 44%
    15:00 +22°C° 0 mm 6 mps 756 mmHg 42%
    16:00 +21°C° 0 mm 6 mps 756 mmHg 48%
    17:00 +19°C° 0 mm 5 mps 756 mmHg 53%
    18:00 +17°C° 0 mm 5 mps 756 mmHg 59%
    19:00 +16°C° 0 mm 5 mps 756 mmHg 64%
    20:00 +15°C° 0 mm 5 mps 756 mmHg 69%
    21:00 +14°C° 0 mm 5 mps 756 mmHg 75%
    22:00 +13°C° 0 mm 4 mps 756 mmHg 79%
    23:00 +12°C° 0 mm 4 mps 755 mmHg 83%

    18 October, Friday

    Time Temperature Precipitation Wind Pressure Humidity
    00:00 +12°C° 0 mm 3 mps 755 mmHg 87%
    01:00 +11°C° 0 mm 3 mps 755 mmHg 89%
    02:00 +11°C° 0 mm 3 mps 755 mmHg 91%
    03:00 +12°C° 0 mm 2 mps 754 mmHg 93%
    04:00 +10°C° 0 mm 2 mps 754 mmHg 93%
    05:00 +10°C° 0 mm 2 mps 754 mmHg 93%
    06:00 +10°C° 0 mm 2 mps 754 mmHg 94%
    07:00 +12°C° 0 mm 2 mps 754 mmHg 87%
    08:00 +14°C° 0 mm 2 mps 754 mmHg 81%
    09:00 +15°C° 0 mm 2 mps 754 mmHg 74%
    10:00 +17°C° 0 mm 2 mps 754 mmHg 65%
    11:00 +19°C° 0 mm 2 mps 754 mmHg 56%
    12:00 +21°C° 0 mm 3 mps 754 mmHg 47%
    13:00 +21°C° 0 mm 2 mps 754 mmHg 45%
    14:00 +23°C° 0 mm 2 mps 753 mmHg 42%
    15:00 +24°C° 0 mm 2 mps 753 mmHg 40%
    16:00 +21°C° 0 mm 2 mps 753 mmHg 44%
    17:00 +21°C° 0 mm 1 mps 753 mmHg 49%
    18:00 +19°C° 0 mm 1 mps 753 mmHg 54%
    19:00 +19°C° 0 mm 1 mps 753 mmHg 55%
    20:00 +16°C° 0 mm 0 mps 753 mmHg 56%
    21:00 +16°C° 0 mm 0 mps 753 mmHg 58%
    22:00 +16°C° 0 mm 1 mps 753 mmHg 59%
    23:00 +16°C° 0 mm 1 mps 753 mmHg 60%
    Show more